| time (UTC) | temp C | wind direction | speed KPH | gust KPH | rain 1hr cm | rain 24hr cm | rain mn cm | humidity % | barometer mb |
| 20260510192555 | 27 | 278 | 1.6 | 3.2 | 0.00 | 0.00 | 0.00 | 45 | 1017.1 |
| 20260510192051 | 28 | 260 | 1.6 | 3.2 | 0.00 | 0.00 | 0.00 | 45 | 1017.0 |
| 20260510191548 | 28 | 296 | 3.2 | 3.2 | 0.00 | 0.00 | 0.00 | 43 | 1016.8 |
| 20260510191045 | 28 | 244 | 1.6 | 3.2 | 0.00 | 0.00 | 0.00 | 43 | 1016.8 |
| 20260510190542 | 28 | 224 | 1.6 | 3.2 | 0.00 | 0.00 | 0.00 | 44 | 1016.9 |
| 20260510190040 | 27 | 219 | 0.0 | 0.0 | 0.00 | 0.00 | 0.00 | 43 | 1017.0 |
| 20260510185536 | 27 | 231 | 0.0 | 3.2 | 0.00 | 0.00 | 0.00 | 45 | 1016.9 |
| 20260510185034 | 27 | 232 | 0.0 | 3.2 | 0.00 | 0.00 | 0.00 | 46 | 1016.8 |
| 20260510184531 | 27 | 221 | 1.6 | 1.6 | 0.00 | 0.00 | 0.00 | 42 | 1017.0 |
| 20260510184026 | 27 | 259 | 1.6 | 4.8 | 0.00 | 0.00 | 0.00 | 44 | 1017.0 |
| 20260510183522 | 27 | 237 | 1.6 | 4.8 | 0.00 | 0.00 | 0.00 | 42 | 1016.8 |
| 20260510183017 | 27 | 169 | 1.6 | 8.0 | 0.00 | 0.00 | 0.00 | 46 | 1016.8 |
| 20260510182514 | 27 | 243 | 0.0 | 1.6 | 0.00 | 0.00 | 0.00 | 44 | 1016.9 |
| 20260510182009 | 27 | 252 | 0.0 | 1.6 | 0.00 | 0.00 | 0.00 | 43 | 1017.1 |
| 20260510181507 | 27 | 277 | 1.6 | 3.2 | 0.00 | 0.00 | 0.00 | 45 | 1016.8 |
| 20260510181003 | 27 | 309 | 3.2 | 8.0 | 0.00 | 0.00 | 0.00 | 49 | 1016.9 |
| 20260510180500 | 26 | 262 | 1.6 | 4.8 | 0.00 | 0.00 | 0.00 | 46 | 1016.8 |
| 20260510175957 | 27 | 209 | 4.8 | 12.9 | 0.00 | 0.00 | 0.00 | 50 | 1017.2 |
| 20260510175453 | 27 | 285 | 4.8 | 4.8 | 0.00 | 0.00 | 0.00 | 44 | 1017.2 |
| 20260510174948 | 27 | 273 | 4.8 | 8.0 | 0.00 | 0.00 | 0.00 | 43 | 1017.0 |
| 20260510174447 | 26 | 235 | 1.6 | 3.2 | 0.00 | 0.00 | 0.00 | 43 | 1017.0 |
| 20260510173944 | 26 | 220 | 1.6 | 8.0 | 0.00 | 0.00 | 0.00 | 46 | 1017.1 |
| 20260510173439 | 26 | 257 | 8.0 | 9.7 | 0.00 | 0.00 | 0.00 | 42 | 1017.2 |
| 20260510172936 | 26 | 283 | 4.8 | 9.7 | 0.00 | 0.00 | 0.00 | 47 | 1017.1 |
| 20260510172432 | 26 | 239 | 0.0 | 8.0 | 0.00 | 0.00 | 0.00 | 45 | 1017.3 |
| 20260510171928 | 26 | 253 | 3.2 | 4.8 | 0.00 | 0.00 | 0.00 | 46 | 1017.4 |
| 20260510171425 | 26 | 218 | 4.8 | 8.0 | 0.00 | 0.00 | 0.00 | 46 | 1017.2 |
| 20260510170922 | 26 | 223 | 3.2 | 4.8 | 0.00 | 0.00 | 0.00 | 49 | 1017.3 |
| 20260510170419 | 27 | 198 | 4.8 | 9.7 | 0.00 | 0.00 | 0.00 | 44 | 1017.2 |
| 20260510165914 | 26 | 220 | 0.0 | 4.8 | 0.00 | 0.00 | 0.00 | 46 | 1017.5 |
| 20260510165410 | 26 | 161 | 0.0 | 4.8 | 0.00 | 0.00 | 0.00 | 49 | 1017.2 |
| 20260510164908 | 26 | 253 | 9.7 | 12.9 | 0.00 | 0.00 | 0.00 | 47 | 1017.4 |
| 20260510164404 | 26 | 263 | 8.0 | 11.3 | 0.00 | 0.00 | 0.00 | 50 | 1017.3 |
| 20260510163859 | 26 | 214 | 4.8 | 8.0 | 0.00 | 0.00 | 0.00 | 51 | 1017.3 |
| 20260510163356 | 26 | 225 | 4.8 | 4.8 | 0.00 | 0.00 | 0.00 | 48 | 1017.4 |
| 20260510162855 | 25 | 234 | 4.8 | 4.8 | 0.00 | 0.00 | 0.00 | 52 | 1017.7 |
| 20260510162353 | 25 | 277 | 4.8 | 12.9 | 0.00 | 0.00 | 0.00 | 48 | 1017.6 |
| 20260510161848 | 26 | 210 | 4.8 | 8.0 | 0.00 | 0.00 | 0.00 | 49 | 1017.4 |
| 20260510161345 | 25 | 248 | 3.2 | 8.0 | 0.00 | 0.00 | 0.00 | 48 | 1017.6 |
| 20260510160842 | 25 | 218 | 8.0 | 11.3 | 0.00 | 0.00 | 0.00 | 46 | 1017.3 |
| 20260510160339 | 25 | 244 | 0.0 | 3.2 | 0.00 | 0.00 | 0.00 | 48 | 1017.5 |
| 20260510155832 | 25 | 263 | 1.6 | 3.2 | 0.00 | 0.00 | 0.00 | 50 | 1017.4 |
| 20260510155329 | 25 | 219 | 8.0 | 9.7 | 0.00 | 0.00 | 0.00 | 51 | 1017.3 |
| 20260510154820 | 25 | 193 | 4.8 | 9.7 | 0.00 | 0.00 | 0.00 | 53 | 1017.2 |
| 20260510154316 | 25 | 207 | 1.6 | 4.8 | 0.00 | 0.00 | 0.00 | 54 | 1017.0 |
| 20260510153815 | 25 | 229 | 4.8 | 4.8 | 0.00 | 0.00 | 0.00 | 54 | 1017.0 |
| 20260510153312 | 25 | 223 | 3.2 | 4.8 | 0.00 | 0.00 | 0.00 | 55 | 1017.1 |
| 20260510152809 | 24 | 190 | 3.2 | 3.2 | 0.00 | 0.00 | 0.00 | 58 | 1017.0 |
| 20260510152307 | 23 | 223 | 3.2 | 4.8 | 0.00 | 0.00 | 0.00 | 59 | 1017.0 |
| 20260510151802 | 23 | 211 | 4.8 | 4.8 | 0.00 | 0.00 | 0.00 | 63 | 1017.2 |
| 20260510151301 | 22 | 218 | 3.2 | 8.0 | 0.00 | 0.00 | 0.00 | 64 | 1017.1 |
| 20260510150756 | 22 | 202 | 3.2 | 8.0 | 0.00 | 0.00 | 0.00 | 66 | 1017.0 |
| 20260510150252 | 22 | 241 | 0.0 | 3.2 | 0.00 | 0.00 | 0.00 | 67 | 1016.9 |
| 20260510145748 | 22 | 219 | 3.2 | 3.2 | 0.00 | 0.00 | 0.00 | 66 | 1017.1 |
| 20260510145245 | 21 | 209 | 0.0 | 1.6 | 0.00 | 0.00 | 0.00 | 69 | 1017.0 |
| 20260510144741 | 21 | 205 | 0.0 | 1.6 | 0.00 | 0.00 | 0.00 | 69 | 1016.8 |
| 20260510144238 | 21 | 222 | 1.6 | 4.8 | 0.00 | 0.00 | 0.00 | 71 | 1017.0 |
| 20260510143737 | 20 | 236 | 1.6 | 3.2 | 0.00 | 0.00 | 0.00 | 70 | 1017.2 |
| 20260510143234 | 20 | 214 | 1.6 | 1.6 | 0.00 | 0.00 | 0.00 | 73 | 1016.9 |
| 20260510142731 | 20 | 238 | 0.0 | 1.6 | 0.00 | 0.00 | 0.00 | 71 | 1016.8 |
| 20260510142228 | 20 | 152 | 0.0 | 1.6 | 0.00 | 0.00 | 0.00 | 73 | 1016.9 |
| 20260510141725 | 20 | 197 | 0.0 | 0.0 | 0.00 | 0.00 | 0.00 | 75 | 1017.0 |
| 20260510141223 | 19 | 212 | 0.0 | 0.0 | 0.00 | 0.00 | 0.00 | 75 | 1017.0 |
| 20260510140719 | 19 | 213 | 0.0 | 1.6 | 0.00 | 0.00 | 0.00 | 75 | 1016.9 |
| 20260510140214 | 18 | 225 | 0.0 | 3.2 | 0.00 | 0.00 | 0.00 | 75 | 1016.9 |
| 20260510135709 | 18 | 233 | 0.0 | 0.0 | 0.00 | 0.00 | 0.00 | 79 | 1016.9 |
| 20260510135205 | 18 | 224 | 1.6 | 3.2 | 0.00 | 0.00 | 0.00 | 74 | 1016.9 |
| 20260510134702 | 18 | 229 | 0.0 | 0.0 | 0.00 | 0.00 | 0.00 | 80 | 1017.1 |
| 20260510134159 | 18 | 229 | 0.0 | 0.0 | 0.00 | 0.00 | 0.00 | 80 | 1017.1 |
| 20260510133655 | 17 | 229 | 0.0 | 0.0 | 0.00 | 0.00 | 0.00 | 79 | 1017.0 |
| 20260510133151 | 17 | 229 | 0.0 | 0.0 | 0.00 | 0.00 | 0.00 | 81 | 1017.1 |
| 20260510132647 | 17 | 229 | 0.0 | 0.0 | 0.00 | 0.00 | 0.00 | 81 | 1017.0 |
| 20260510132144 | 16 | 230 | 0.0 | 1.6 | 0.00 | 0.00 | 0.00 | 84 | 1017.1 |
| 20260510131642 | 16 | 230 | 0.0 | 0.0 | 0.00 | 0.00 | 0.00 | 87 | 1016.9 |
| 20260510131139 | 15 | 229 | 0.0 | 0.0 | 0.00 | 0.00 | 0.00 | 89 | 1016.9 |
| 20260510130636 | 15 | 229 | 0.0 | 0.0 | 0.00 | 0.00 | 0.00 | 94 | 1017.0 |
| 20260510130133 | 15 | 229 | 0.0 | 0.0 | 0.00 | 0.00 | 0.00 | 97 | 1016.8 |
| 20260510125629 | 14 | 229 | 0.0 | 0.0 | 0.00 | 0.00 | 0.00 | 99 | 1016.9 |
| 20260510125126 | 13 | 230 | 0.0 | 0.0 | 0.00 | 0.00 | 0.00 | 99 | 1016.6 |
| 20260510124623 | 13 | 230 | 0.0 | 1.6 | 0.00 | 0.00 | 0.00 | 99 | 1016.9 |
| 20260510124119 | 13 | 229 | 0.0 | 0.0 | 0.00 | 0.00 | 0.00 | 99 | 1016.8 |
| 20260510123615 | 12 | 229 | 0.0 | 0.0 | 0.00 | 0.00 | 0.00 | 99 | 1016.6 |
| 20260510123111 | 12 | 229 | 0.0 | 0.0 | 0.00 | 0.00 | 0.00 | 99 | 1016.8 |
| 20260510122607 | 12 | 229 | 0.0 | 0.0 | 0.00 | 0.00 | 0.00 | 99 | 1016.6 |
| 20260510122103 | 12 | 229 | 0.0 | 0.0 | 0.00 | 0.00 | 0.00 | 99 | 1016.5 |
| 20260510121600 | 12 | 229 | 0.0 | 0.0 | 0.00 | 0.00 | 0.00 | 99 | 1016.8 |
| 20260510121057 | 11 | 230 | 0.0 | 0.0 | 0.00 | 0.00 | 0.00 | 99 | 1016.6 |
| 20260510120555 | 11 | 230 | 0.0 | 0.0 | 0.00 | 0.00 | 0.00 | 99 | 1016.5 |
| 20260510120050 | 11 | 230 | 0.0 | 0.0 | 0.00 | 0.00 | 0.00 | 99 | 1016.5 |
| 20260510115547 | 10 | 230 | 0.0 | 0.0 | 0.00 | 0.00 | 0.00 | 99 | 1016.2 |
| 20260510115044 | 10 | 230 | 0.0 | 0.0 | 0.00 | 0.00 | 0.00 | 99 | 1016.3 |
| 20260510114540 | 10 | 229 | 0.0 | 0.0 | 0.00 | 0.00 | 0.00 | 99 | 1015.9 |
| 20260510114036 | 10 | 229 | 0.0 | 1.6 | 0.00 | 0.00 | 0.00 | 99 | 1016.3 |
| 20260510113531 | 10 | 230 | 0.0 | 1.6 | 0.00 | 0.00 | 0.00 | 99 | 1015.9 |
| 20260510113030 | 10 | 225 | 0.0 | 0.0 | 0.00 | 0.00 | 0.00 | 99 | 1015.6 |
| 20260510112526 | 10 | 226 | 0.0 | 0.0 | 0.00 | 0.00 | 0.00 | 99 | 1016.0 |
| 20260510112022 | 9 | 217 | 0.0 | 0.0 | 0.00 | 0.00 | 0.00 | 99 | 1015.9 |
| 20260510111519 | 9 | 218 | 0.0 | 0.0 | 0.00 | 0.00 | 0.00 | 99 | 1015.9 |
| 20260510111015 | 9 | 212 | 3.2 | 3.2 | 0.00 | 0.00 | 0.00 | 99 | 1015.7 |
| 20260510110511 | 10 | 215 | 1.6 | 1.6 | 0.00 | 0.00 | 0.00 | 99 | 1015.8 |
| 20260510110008 | 8 | 23 | 3.2 | 3.2 | 0.00 | 0.00 | 0.00 | 99 | 1015.6 |
| 20260510105502 | 8 | 213 | 1.6 | 1.6 | 0.00 | 0.00 | 0.00 | 99 | 1015.5 |
| 20260510104958 | 8 | 241 | 0.0 | 3.2 | 0.00 | 0.00 | 0.00 | 99 | 1015.3 |
| 20260510104455 | 8 | 233 | 0.0 | 0.0 | 0.00 | 0.00 | 0.00 | 99 | 1015.2 |
| 20260510103951 | 8 | 233 | 0.0 | 0.0 | 0.00 | 0.00 | 0.00 | 99 | 1015.0 |
| 20260510103449 | 8 | 233 | 0.0 | 0.0 | 0.00 | 0.00 | 0.00 | 99 | 1015.1 |
| 20260510102944 | 8 | 233 | 0.0 | 0.0 | 0.00 | 0.00 | 0.00 | 99 | 1014.9 |
| 20260510102440 | 8 | 233 | 0.0 | 0.0 | 0.00 | 0.00 | 0.00 | 98 | 1015.0 |
| 20260510101937 | 8 | 233 | 0.0 | 0.0 | 0.00 | 0.00 | 0.00 | 98 | 1015.0 |
| 20260510101435 | 8 | 233 | 0.0 | 0.0 | 0.00 | 0.00 | 0.00 | 98 | 1014.9 |
| 20260510100933 | 8 | 233 | 0.0 | 0.0 | 0.00 | 0.00 | 0.00 | 98 | 1014.9 |
| 20260510100429 | 8 | 233 | 0.0 | 0.0 | 0.00 | 0.00 | 0.00 | 98 | 1014.6 |
| 20260510095925 | 8 | 233 | 0.0 | 0.0 | 0.00 | 0.00 | 0.00 | 98 | 1014.6 |
| 20260510095421 | 9 | 233 | 0.0 | 0.0 | 0.00 | 0.00 | 0.00 | 98 | 1014.6 |
| 20260510094920 | 9 | 233 | 0.0 | 0.0 | 0.00 | 0.00 | 0.00 | 98 | 1014.8 |
| 20260510094415 | 9 | 233 | 0.0 | 0.0 | 0.00 | 0.00 | 0.00 | 98 | 1014.6 |
| 20260510093911 | 8 | 233 | 0.0 | 0.0 | 0.00 | 0.00 | 0.00 | 98 | 1014.6 |
| 20260510093407 | 8 | 233 | 0.0 | 0.0 | 0.00 | 0.00 | 0.00 | 98 | 1014.4 |
| 20260510092903 | 9 | 233 | 0.0 | 0.0 | 0.00 | 0.00 | 0.00 | 98 | 1014.4 |
| 20260510092401 | 8 | 233 | 0.0 | 0.0 | 0.00 | 0.00 | 0.00 | 98 | 1014.3 |
| 20260510091855 | 8 | 233 | 0.0 | 0.0 | 0.00 | 0.00 | 0.00 | 98 | 1014.5 |
| 20260510091353 | 9 | 233 | 0.0 | 0.0 | 0.00 | 0.00 | 0.00 | 98 | 1014.3 |
| 20260510090849 | 9 | 233 | 0.0 | 0.0 | 0.00 | 0.00 | 0.00 | 98 | 1014.2 |
| 20260510090346 | 9 | 233 | 0.0 | 0.0 | 0.00 | 0.00 | 0.00 | 98 | 1014.3 |
| 20260510085841 | 9 | 233 | 0.0 | 0.0 | 0.00 | 0.00 | 0.00 | 98 | 1014.3 |
| 20260510085336 | 9 | 233 | 0.0 | 0.0 | 0.00 | 0.00 | 0.00 | 98 | 1014.1 |
| 20260510084832 | 9 | 233 | 0.0 | 0.0 | 0.00 | 0.00 | 0.00 | 98 | 1014.2 |
| 20260510084329 | 9 | 233 | 0.0 | 0.0 | 0.00 | 0.00 | 0.00 | 98 | 1014.2 |
| 20260510083826 | 9 | 233 | 0.0 | 0.0 | 0.00 | 0.00 | 0.00 | 98 | 1014.0 |
| 20260510083323 | 9 | 233 | 0.0 | 0.0 | 0.00 | 0.00 | 0.00 | 98 | 1014.0 |
| 20260510082818 | 10 | 233 | 0.0 | 0.0 | 0.00 | 0.00 | 0.00 | 98 | 1014.0 |
| 20260510082316 | 10 | 233 | 0.0 | 0.0 | 0.00 | 0.00 | 0.00 | 98 | 1013.8 |
| 20260510081814 | 10 | 233 | 0.0 | 0.0 | 0.00 | 0.00 | 0.00 | 98 | 1013.8 |
| 20260510081311 | 10 | 233 | 0.0 | 0.0 | 0.00 | 0.00 | 0.00 | 98 | 1013.8 |
| 20260510080807 | 10 | 233 | 0.0 | 0.0 | 0.00 | 0.00 | 0.00 | 98 | 1013.8 |
| 20260510080301 | 10 | 233 | 0.0 | 0.0 | 0.00 | 0.00 | 0.00 | 98 | 1013.9 |
| 20260510075759 | 10 | 233 | 0.0 | 0.0 | 0.00 | 0.00 | 0.00 | 98 | 1014.0 |
| 20260510075256 | 10 | 233 | 0.0 | 0.0 | 0.00 | 0.00 | 0.00 | 98 | 1014.1 |
| 20260510074753 | 10 | 233 | 0.0 | 0.0 | 0.00 | 0.00 | 0.00 | 98 | 1013.9 |
| 20260510074250 | 10 | 233 | 0.0 | 1.6 | 0.00 | 0.00 | 0.00 | 98 | 1013.9 |
| 20260510073746 | 10 | 233 | 0.0 | 0.0 | 0.00 | 0.00 | 0.00 | 98 | 1014.0 |
| 20260510073242 | 10 | 233 | 0.0 | 0.0 | 0.00 | 0.00 | 0.00 | 98 | 1013.8 |
| 20260510072737 | 10 | 233 | 0.0 | 0.0 | 0.00 | 0.00 | 0.00 | 98 | 1013.7 |
| 20260510072234 | 10 | 233 | 0.0 | 0.0 | 0.00 | 0.00 | 0.00 | 98 | 1014.0 |
| 20260510071731 | 10 | 233 | 0.0 | 0.0 | 0.00 | 0.00 | 0.00 | 97 | 1013.8 |
| 20260510071228 | 10 | 233 | 0.0 | 0.0 | 0.00 | 0.00 | 0.00 | 97 | 1013.6 |
| 20260510070726 | 10 | 233 | 0.0 | 0.0 | 0.00 | 0.00 | 0.00 | 97 | 1013.6 |
| 20260510070223 | 10 | 233 | 0.0 | 0.0 | 0.00 | 0.00 | 0.00 | 97 | 1013.4 |
| 20260510065718 | 10 | 233 | 0.0 | 0.0 | 0.00 | 0.00 | 0.00 | 97 | 1013.4 |
| 20260510065214 | 10 | 233 | 0.0 | 0.0 | 0.00 | 0.00 | 0.00 | 97 | 1013.3 |
| 20260510064711 | 10 | 233 | 0.0 | 0.0 | 0.00 | 0.00 | 0.00 | 97 | 1013.7 |
| 20260510064209 | 10 | 233 | 0.0 | 0.0 | 0.00 | 0.00 | 0.00 | 97 | 1013.6 |
| 20260510063705 | 10 | 233 | 0.0 | 0.0 | 0.00 | 0.00 | 0.00 | 97 | 1013.4 |
| 20260510063201 | 10 | 233 | 0.0 | 0.0 | 0.00 | 0.00 | 0.00 | 97 | 1013.6 |
| 20260510062658 | 10 | 233 | 0.0 | 0.0 | 0.00 | 0.00 | 0.00 | 97 | 1013.2 |
| 20260510062154 | 10 | 233 | 0.0 | 0.0 | 0.00 | 0.00 | 0.00 | 97 | 1013.6 |
| 20260510061649 | 10 | 233 | 0.0 | 0.0 | 0.00 | 0.00 | 0.00 | 97 | 1013.6 |
| 20260510061147 | 10 | 233 | 0.0 | 0.0 | 0.00 | 0.00 | 0.00 | 97 | 1013.6 |
| 20260510060643 | 10 | 233 | 0.0 | 0.0 | 0.00 | 0.00 | 0.00 | 97 | 1013.7 |
| 20260510060140 | 10 | 233 | 0.0 | 0.0 | 0.00 | 0.00 | 0.00 | 96 | 1013.6 |
| 20260510055636 | 11 | 233 | 0.0 | 0.0 | 0.00 | 0.00 | 0.00 | 96 | 1013.4 |
| 20260510055134 | 10 | 233 | 0.0 | 0.0 | 0.00 | 0.00 | 0.00 | 96 | 1013.2 |
| 20260510054629 | 11 | 233 | 0.0 | 0.0 | 0.00 | 0.00 | 0.00 | 96 | 1013.7 |
| 20260510054125 | 11 | 233 | 0.0 | 0.0 | 0.00 | 0.00 | 0.00 | 96 | 1013.4 |
| 20260510053624 | 11 | 233 | 0.0 | 0.0 | 0.00 | 0.00 | 0.00 | 96 | 1013.3 |
| 20260510053121 | 11 | 233 | 0.0 | 0.0 | 0.00 | 0.00 | 0.00 | 96 | 1013.7 |
| 20260510052617 | 11 | 233 | 0.0 | 0.0 | 0.00 | 0.00 | 0.00 | 95 | 1013.4 |
| 20260510052114 | 11 | 233 | 0.0 | 0.0 | 0.00 | 0.00 | 0.00 | 95 | 1013.4 |
| 20260510051609 | 11 | 233 | 0.0 | 0.0 | 0.00 | 0.00 | 0.00 | 95 | 1013.4 |
| 20260510051106 | 11 | 233 | 0.0 | 0.0 | 0.00 | 0.00 | 0.00 | 95 | 1013.2 |
| 20260510050604 | 11 | 233 | 0.0 | 0.0 | 0.00 | 0.00 | 0.00 | 95 | 1013.1 |
| 20260510050100 | 11 | 233 | 0.0 | 0.0 | 0.00 | 0.00 | 0.00 | 95 | 1013.1 |
| 20260510045558 | 11 | 233 | 0.0 | 0.0 | 0.00 | 0.00 | 0.00 | 95 | 1013.2 |
| 20260510045053 | 11 | 233 | 0.0 | 0.0 | 0.00 | 0.00 | 0.00 | 94 | 1013.3 |
| 20260510044550 | 11 | 233 | 0.0 | 0.0 | 0.00 | 0.00 | 0.00 | 94 | 1013.2 |
| 20260510044048 | 12 | 233 | 0.0 | 0.0 | 0.00 | 0.00 | 0.00 | 94 | 1012.9 |
| 20260510043543 | 12 | 233 | 0.0 | 0.0 | 0.00 | 0.00 | 0.00 | 94 | 1013.1 |
| 20260510043039 | 12 | 233 | 0.0 | 0.0 | 0.00 | 0.00 | 0.00 | 94 | 1013.4 |
| 20260510042538 | 12 | 233 | 0.0 | 0.0 | 0.00 | 0.00 | 0.00 | 93 | 1013.1 |
| 20260510042034 | 12 | 233 | 0.0 | 0.0 | 0.00 | 0.00 | 0.00 | 93 | 1013.3 |
| 20260510041531 | 12 | 233 | 0.0 | 0.0 | 0.00 | 0.00 | 0.00 | 93 | 1013.1 |
| 20260510041029 | 12 | 234 | 0.0 | 0.0 | 0.00 | 0.00 | 0.00 | 93 | 1013.1 |
| 20260510040525 | 12 | 234 | 0.0 | 0.0 | 0.00 | 0.00 | 0.00 | 93 | 1013.1 |
| 20260510040021 | 12 | 234 | 0.0 | 1.6 | 0.00 | 0.00 | 0.00 | 93 | 1013.2 |
| 20260510035518 | 12 | 233 | 0.0 | 1.6 | 0.00 | 0.00 | 0.00 | 93 | 1013.3 |
| 20260510035017 | 12 | 232 | 0.0 | 0.0 | 0.00 | 0.00 | 0.00 | 93 | 1013.3 |
| 20260510034516 | 12 | 232 | 0.0 | 0.0 | 0.00 | 0.00 | 0.00 | 92 | 1013.2 |
| 20260510034012 | 12 | 232 | 0.0 | 0.0 | 0.00 | 0.00 | 0.00 | 93 | 1013.1 |
| 20260510033508 | 12 | 232 | 0.0 | 0.0 | 0.00 | 0.00 | 0.00 | 93 | 1013.4 |
| 20260510033006 | 12 | 232 | 0.0 | 0.0 | 0.00 | 0.00 | 0.00 | 93 | 1013.3 |
| 20260510032457 | 12 | 232 | 0.0 | 0.0 | 0.00 | 0.00 | 0.00 | 93 | 1013.3 |
| 20260510031957 | 13 | 232 | 0.0 | 0.0 | 0.00 | 0.00 | 0.00 | 92 | 1013.3 |
| 20260510031452 | 13 | 232 | 0.0 | 0.0 | 0.00 | 0.00 | 0.00 | 92 | 1013.2 |
| 20260510030949 | 13 | 232 | 0.0 | 0.0 | 0.00 | 0.00 | 0.00 | 92 | 1013.2 |
| 20260510030444 | 13 | 232 | 0.0 | 0.0 | 0.00 | 0.00 | 0.00 | 92 | 1013.3 |
| 20260510025942 | 13 | 232 | 0.0 | 0.0 | 0.00 | 0.00 | 0.00 | 92 | 1013.3 |
| 20260510025439 | 13 | 232 | 0.0 | 0.0 | 0.00 | 0.00 | 0.00 | 91 | 1013.2 |
| 20260510024936 | 13 | 232 | 0.0 | 0.0 | 0.00 | 0.00 | 0.00 | 91 | 1013.2 |
| 20260510024433 | 13 | 232 | 0.0 | 0.0 | 0.00 | 0.00 | 0.00 | 91 | 1013.1 |
| 20260510023928 | 13 | 232 | 0.0 | 0.0 | 0.00 | 0.00 | 0.00 | 90 | 1013.1 |
| 20260510023425 | 13 | 232 | 0.0 | 0.0 | 0.00 | 0.00 | 0.00 | 90 | 1013.0 |
| 20260510022922 | 13 | 232 | 0.0 | 0.0 | 0.00 | 0.00 | 0.00 | 90 | 1013.2 |
| 20260510022421 | 14 | 232 | 0.0 | 0.0 | 0.00 | 0.00 | 0.00 | 90 | 1012.8 |
| 20260510021920 | 14 | 232 | 0.0 | 0.0 | 0.00 | 0.00 | 0.00 | 88 | 1012.9 |
| 20260510021419 | 14 | 232 | 0.0 | 0.0 | 0.00 | 0.00 | 0.00 | 88 | 1013.0 |
| 20260510020915 | 15 | 232 | 0.0 | 0.0 | 0.00 | 0.00 | 0.00 | 87 | 1012.6 |
| 20260510020410 | 15 | 232 | 0.0 | 0.0 | 0.00 | 0.00 | 0.00 | 88 | 1012.7 |
| 20260510015906 | 15 | 232 | 0.0 | 0.0 | 0.00 | 0.00 | 0.00 | 88 | 1012.7 |
| 20260510015402 | 15 | 232 | 0.0 | 0.0 | 0.00 | 0.00 | 0.00 | 87 | 1012.7 |
| 20260510014857 | 15 | 232 | 0.0 | 0.0 | 0.00 | 0.00 | 0.00 | 86 | 1012.5 |
| 20260510014355 | 15 | 232 | 0.0 | 0.0 | 0.00 | 0.00 | 0.00 | 85 | 1012.4 |
| 20260510013851 | 15 | 232 | 0.0 | 0.0 | 0.00 | 0.00 | 0.00 | 85 | 1012.3 |
| 20260510013346 | 16 | 232 | 0.0 | 0.0 | 0.00 | 0.00 | 0.00 | 84 | 1012.3 |
| 20260510012841 | 16 | 232 | 0.0 | 0.0 | 0.00 | 0.00 | 0.00 | 82 | 1012.2 |
| 20260510012335 | 16 | 232 | 0.0 | 1.6 | 0.00 | 0.00 | 0.00 | 81 | 1012.2 |
| 20260510011831 | 16 | 232 | 0.0 | 1.6 | 0.00 | 0.00 | 0.00 | 81 | 1012.0 |
| 20260510011326 | 16 | 232 | 0.0 | 1.6 | 0.00 | 0.00 | 0.00 | 81 | 1011.8 |
| 20260510010823 | 17 | 232 | 0.0 | 0.0 | 0.00 | 0.00 | 0.00 | 80 | 1012.1 |
| 20260510010320 | 17 | 232 | 0.0 | 0.0 | 0.00 | 0.00 | 0.00 | 79 | 1011.8 |
| 20260510005817 | 17 | 232 | 0.0 | 1.6 | 0.00 | 0.00 | 0.00 | 78 | 1011.8 |
| 20260510005313 | 18 | 232 | 0.0 | 0.0 | 0.00 | 0.00 | 0.00 | 77 | 1011.9 |
| 20260510004811 | 18 | 232 | 0.0 | 0.0 | 0.00 | 0.00 | 0.00 | 76 | 1011.8 |
| 20260510004308 | 18 | 232 | 0.0 | 0.0 | 0.00 | 0.00 | 0.00 | 75 | 1011.7 |
| 20260510003806 | 19 | 232 | 0.0 | 0.0 | 0.00 | 0.00 | 0.00 | 74 | 1011.7 |
| 20260510003303 | 20 | 232 | 0.0 | 0.0 | 0.00 | 0.00 | 0.00 | 71 | 1011.5 |
| 20260510002801 | 20 | 232 | 0.0 | 0.0 | 0.00 | 0.00 | 0.00 | 69 | 1011.5 |
| 20260510002259 | 20 | 232 | 0.0 | 0.0 | 0.00 | 0.00 | 0.00 | 69 | 1011.6 |
| 20260510001755 | 21 | 232 | 0.0 | 0.0 | 0.00 | 0.00 | 0.00 | 67 | 1011.3 |
| 20260510001254 | 21 | 233 | 0.0 | 0.0 | 0.00 | 0.00 | 0.00 | 65 | 1011.4 |
| 20260510000749 | 21 | 233 | 0.0 | 1.6 | 0.00 | 0.00 | 0.00 | 68 | 1011.4 |
| 20260510000248 | 21 | 219 | 0.0 | 0.0 | 0.00 | 0.00 | 0.00 | 64 | 1011.2 |
| 20260509235744 | 21 | 219 | 0.0 | 1.6 | 0.00 | 0.00 | 0.00 | 61 | 1011.3 |
| 20260509235240 | 22 | 218 | 1.6 | 1.6 | 0.00 | 0.00 | 0.00 | 62 | 1011.2 |
| 20260509234736 | 22 | 219 | 0.0 | 1.6 | 0.00 | 0.00 | 0.00 | 62 | 1011.3 |
| 20260509234233 | 23 | 219 | 1.6 | 1.6 | 0.00 | 0.00 | 0.00 | 56 | 1011.1 |
| 20260509233731 | 25 | 220 | 1.6 | 1.6 | 0.00 | 0.00 | 0.00 | 52 | 1011.0 |
| 20260509233229 | 26 | 217 | 0.0 | 1.6 | 0.00 | 0.00 | 0.00 | 47 | 1011.1 |
| 20260509232724 | 26 | 217 | 0.0 | 3.2 | 0.00 | 0.00 | 0.00 | 41 | 1010.9 |
| 20260509232222 | 26 | 219 | 0.0 | 1.6 | 0.00 | 0.00 | 0.00 | 48 | 1011.1 |
| 20260509231718 | 26 | 219 | 0.0 | 1.6 | 0.00 | 0.00 | 0.00 | 48 | 1011.0 |
| 20260509231215 | 26 | 218 | 1.6 | 3.2 | 0.00 | 0.00 | 0.00 | 49 | 1011.1 |
| 20260509230713 | 26 | 223 | 1.6 | 1.6 | 0.00 | 0.00 | 0.00 | 50 | 1011.3 |
| 20260509230209 | 27 | 232 | 1.6 | 3.2 | 0.00 | 0.00 | 0.00 | 39 | 1011.4 |
| 20260509225705 | 28 | 247 | 0.0 | 0.0 | 0.00 | 0.00 | 0.00 | 32 | 1011.1 |
| 20260509225200 | 28 | 247 | 0.0 | 1.6 | 0.00 | 0.00 | 0.00 | 45 | 1011.3 |
| 20260509224651 | 28 | 248 | 0.0 | 1.6 | 0.00 | 0.00 | 0.00 | 29 | 1011.1 |
| 20260509224148 | 28 | 243 | 0.0 | 1.6 | 0.00 | 0.00 | 0.00 | 32 | 1011.2 |
| 20260509223644 | 28 | 242 | 1.6 | 1.6 | 0.00 | 0.00 | 0.00 | 30 | 1011.4 |
| 20260509223142 | 27 | 241 | 0.0 | 4.8 | 0.00 | 0.00 | 0.00 | 30 | 1011.0 |
| 20260509222639 | 27 | 205 | 0.0 | 3.2 | 0.00 | 0.00 | 0.00 | 32 | 1011.5 |
| 20260509222134 | 27 | 206 | 1.6 | 3.2 | 0.00 | 0.00 | 0.00 | 34 | 1011.1 |
| 20260509221631 | 27 | 216 | 3.2 | 4.8 | 0.00 | 0.00 | 0.00 | 39 | 1010.9 |
| 20260509221126 | 27 | 216 | 0.0 | 3.2 | 0.00 | 0.00 | 0.00 | 32 | 1011.3 |
| 20260509220622 | 28 | 211 | 4.8 | 4.8 | 0.00 | 0.00 | 0.00 | 33 | 1010.9 |
| 20260509220119 | 28 | 212 | 1.6 | 3.2 | 0.00 | 0.00 | 0.00 | 35 | 1011.0 |
| 20260509215614 | 28 | 239 | 0.0 | 1.6 | 0.00 | 0.00 | 0.00 | 35 | 1011.1 |
| 20260509215111 | 28 | 263 | 1.6 | 3.2 | 0.00 | 0.00 | 0.00 | 34 | 1010.9 |
| 20260509214608 | 28 | 242 | 1.6 | 3.2 | 0.00 | 0.00 | 0.00 | 34 | 1011.1 |
| 20260509214105 | 28 | 232 | 0.0 | 1.6 | 0.00 | 0.00 | 0.00 | 36 | 1010.9 |
| 20260509213601 | 27 | 207 | 0.0 | 0.0 | 0.00 | 0.00 | 0.00 | 36 | 1010.6 |
| 20260509213058 | 27 | 224 | 1.6 | 4.8 | 0.00 | 0.00 | 0.00 | 37 | 1010.9 |
| 20260509212555 | 27 | 210 | 4.8 | 4.8 | 0.00 | 0.00 | 0.00 | 35 | 1011.1 |
| 20260509212052 | 27 | 216 | 0.0 | 1.6 | 0.00 | 0.00 | 0.00 | 35 | 1010.7 |
| 20260509211548 | 27 | 226 | 8.0 | 12.9 | 0.00 | 0.00 | 0.00 | 36 | 1010.8 |
| 20260509211044 | 27 | 209 | 3.2 | 3.2 | 0.00 | 0.00 | 0.00 | 39 | 1010.8 |
| 20260509210541 | 27 | 222 | 0.0 | 4.8 | 0.00 | 0.00 | 0.00 | 38 | 1010.9 |
| 20260509210037 | 27 | 196 | 4.8 | 8.0 | 0.00 | 0.00 | 0.00 | 36 | 1010.8 |
| 20260509205532 | 27 | 222 | 3.2 | 3.2 | 0.00 | 0.00 | 0.00 | 37 | 1010.7 |
| 20260509205028 | 27 | 217 | 1.6 | 4.8 | 0.00 | 0.00 | 0.00 | 36 | 1010.9 |
| 20260509204524 | 28 | 336 | 4.8 | 4.8 | 0.00 | 0.00 | 0.00 | 33 | 1010.8 |
| 20260509204021 | 27 | 216 | 0.0 | 1.6 | 0.00 | 0.00 | 0.00 | 34 | 1010.7 |
| 20260509203516 | 27 | 230 | 0.0 | 1.6 | 0.00 | 0.00 | 0.00 | 39 | 1010.9 |
| 20260509203015 | 27 | 302 | 1.6 | 3.2 | 0.00 | 0.00 | 0.00 | 37 | 1010.8 |
| 20260509202509 | 26 | 244 | 0.0 | 3.2 | 0.00 | 0.00 | 0.00 | 37 | 1010.7 |
| 20260509202005 | 26 | 304 | 9.7 | 11.3 | 0.00 | 0.00 | 0.00 | 38 | 1010.9 |
| 20260509201500 | 27 | 255 | 4.8 | 14.5 | 0.00 | 0.00 | 0.00 | 38 | 1011.2 |
| 20260509200957 | 26 | 239 | 1.6 | 8.0 | 0.00 | 0.00 | 0.00 | 40 | 1011.1 |
| 20260509200452 | 26 | 205 | 3.2 | 4.8 | 0.00 | 0.00 | 0.00 | 37 | 1011.4 |
| 20260509195948 | 26 | 316 | 1.6 | 8.0 | 0.00 | 0.00 | 0.00 | 37 | 1011.1 |
| 20260509195439 | 26 | 19 | 3.2 | 8.0 | 0.00 | 0.00 | 0.00 | 39 | 1011.3 |
| 20260509194938 | 26 | 251 | 1.6 | 4.8 | 0.00 | 0.00 | 0.00 | 39 | 1011.4 |
| 20260509194434 | 26 | 219 | 3.2 | 4.8 | 0.00 | 0.00 | 0.00 | 39 | 1011.3 |
| 20260509193932 | 26 | 198 | 1.6 | 8.0 | 0.00 | 0.00 | 0.00 | 36 | 1011.2 |
| 20260509193431 | 26 | 301 | 3.2 | 4.8 | 0.00 | 0.00 | 0.00 | 43 | 1011.4 |
| 20260509192927 | 26 | 215 | 3.2 | 8.0 | 0.00 | 0.00 | 0.00 | 40 | 1011.3 |